Regional Weather Roundup
Issued by NWS Cleveland, OH

Home | Current Version | Previous Version | Graphics & Text | Print | Product List | Glossary On
Versions: 1 2 3 4 5 6 7 8 9 10 11 12 13 14 15 16 17 18 19 20 21 22 23 24 25 26 27 28 29 30 31 32 33 34 35 36 37 38 39 40 41 42 43 44 45 46 47 48 49 50
000
ASUS41 KCLE 240902
RWRCLE
OHIO REGIONAL WEATHER ROUNDUP
NATIONAL WEATHER SERVICE CLEVELAND, OH
500 AM EDT THU JUL 24 2014

NOTE: "FAIR" INDICATES FEW OR NO CLOUDS BELOW 12,000 FEET WITH NO
SIGNIFICANT WEATHER AND/OR OBSTRUCTIONS TO VISIBILITY.

OHZ001>008-015>018-024>027-034-035-043-044-241000-
   NORTHWEST OHIO

CITY           SKY/WX    TMP DP  RH WIND       PRES   REMARKS
DEFIANCE       MOCLDY    59  54  83 N3        30.08R
FINDLAY        CLEAR     58  54  86 NE5       30.05S
TOLEDO EXPRESS CLEAR     55  52  89 N6        30.07R
TOLEDO EXEC    CLEAR     58  51  78 N5        30.07R
LIMA           CLEAR     58  56  93 N5        30.07R
$$

OHZ009>014-019>023-028>033-038-089-241000-
   NORTHEAST OHIO

CITY           SKY/WX    TMP DP  RH WIND       PRES   REMARKS
CLE-HOPKINS    MOCLDY    64  55  72 NE9       30.04S
CLE-LAKEFRONT  CLOUDY    66  55  67 NE10      30.02R
CUY CO. ARPT   NOT AVBL
LORAIN-ELYRIA  MOCLDY    64  56  75 N6        30.04S
ASHTABULA      PTCLDY    59  54  83 CALM      30.03R
AKRON-CANTON   CLEAR     58  54  86 N5        30.03R
WOOSTER        CLEAR     56  54  93 N7        30.04R
MANSFIELD      CLEAR     54  54 100 N7        30.04R
YOUNGSTOWN     MOCLDY    59  55  87 N6        30.02R
$$

OHZ042-051>053-060>062-070>072-077>081-241000-
  SOUTHWEST OHIO

CITY           SKY/WX    TMP DP  RH WIND       PRES   REMARKS
CINC-COVINGTON MOCLDY    65  54  67 NE12      30.00R
CINC-LUNKEN    CLOUDY    63  56  78 NE9       30.00S
HAMILTON       PTCLDY    63  56  78 N6        30.02F
DAYTON         PTCLDY    59  56  89 N7        30.05S
WRIGHT-PAT AFB CLEAR     59  57  92 N8        30.04S
DAYTON GENERAL CLEAR     60  56  86 NE8       30.02S
WILMINGTON     CLOUDY    61  55  81 NE12      30.01F
$$

OHZ036-037-039>041-045>050-054>059-063>069-073>076-082>088-241000-
  CENTRAL AND SOUTHEAST OHIO

CITY           SKY/WX    TMP DP  RH WIND       PRES   REMARKS
COLUMBUS       CLEAR     60  54  80 N6        30.02S
OSU AIRPORT    CLEAR     56  53  90 N6        30.02F
BOLTON FIELD   NOT AVBL
RICKENBACK AFB CLOUDY    62  53  74 N9        29.99R
NEWARK         CLOUDY    61  55  81 N5        30.01S
MARION         CLEAR     56  53  90 N5        30.05R
LANCASTER      MOCLDY    61  57  87 N5        30.01R
ZANESVILLE     CLOUDY    62  56  80 N6        30.01R
NEW PHILLY     CLEAR     57  56  96 CALM      30.02R
$$


USA.gov is the U.S. government's official web portal to all federal, state and local government web resources and services.